Regional Weather Roundup
Issued by NWS Sterling, VA

Home | Current Version | Previous Version | Graphics & Text | Print | Product List | Glossary On
Versions: 1 2 3 4 5 6 7 8 9 10 11 12 13 14 15 16 17 18 19 20 21 22 23 24 25 26 27 28 29 30 31 32 33 34 35 36 37 38 39 40 41 42 43 44 45 46 47 48 49 50
000
ASUS41 KLWX 192010
RWRLWX

REGIONAL WEATHER ROUNDUP
NATIONAL WEATHER SERVICE BALTIMORE MD/WASHINGTON DC
400 PM EDT SUN OCT 19 2014

Note: "FAIR" indicates few or no clouds below 12,000 feet
with no significant weather and/or obstructions to visibility.
 TC=TEMPERATURE CELSIUS

 * =Non NWS site. Station does not report precipitation (e.g. rain,
    snow, etc.), thunder, or fog.

DCZ001-MDZ009-015-VAZ040>042-051-053>054-192100-
WASHINGTON METRO

CITY           SKY/WX    TMP DP  RH WIND       PRES   REMARKS
WASHINGTON NAT MOSUNNY   62  29  28 NW14G24   30.05S
DULLES         MOSUNNY   58  32  37 W15G23    30.05S
ANDREWS AFB    SUNNY     58  31  35 NW16      30.03R
FT BELVOIR     SUNNY     60  30  32 NW12      30.05S
QUANTICO       SUNNY     61  31  32 NW15      30.06R
COLLEGE PARK*  SUNNY     59  30  33 N10G18    30.03S
LEESBURG*      SUNNY     59  36  41 NW17G23   30.05S
MANASSAS*      SUNNY     61  34  36 NW15      30.05S
GAITHERSBURG*  SUNNY     55  30  38 NW13G21   30.07S

$$

MDZ006>007-011-014-192100-
BALTIMORE METRO

CITY           SKY/WX    TMP DP  RH WIND       PRES   REMARKS
BWI AIRPORT    MOSUNNY   58  28  32 NW12      30.02S
MD SCIENCE CTR   N/A     57  28  33 MISG      30.02S
MARTIN STATE   SUNNY     59  34  38 NW18      30.02F
ANNAPOLIS      SUNNY     58  30  34 NW9G20    30.02R
FORT MEADE*    SUNNY     57  28  33 NW5       30.05S

$$

MDZ012-015-019>023-192100-
MARYLAND EASTERN SHORE

CITY           SKY/WX    TMP DP  RH WIND       PRES   REMARKS
OCEAN CITY     SUNNY     57  32  38 NW16G25   29.98S
SALISBURY      SUNNY     60  33  36 NW17G23   30.00S
BAY BRIDGE AP*   N/A     57  30  35 NW17      30.02R
CAMBRIDGE*     SUNNY     59  32  36 NW15G21   30.02R
EASTON*        SUNNY     59  36  41 NW16G22   30.05S

$$

MDZ017>025-192100-
SOUTHERN MARYLAND

CITY           SKY/WX    TMP DP  RH WIND       PRES   REMARKS
PATUXENT RIVER SUNNY     59  29  31 NW16      30.02S
ST INIGOES     SUNNY     60  29  30 W13G22    30.03R
LEONARDTOWN*   SUNNY     59  28  31 W12G17    30.04S

$$

MDZ003>005-192100-
NORTH CENTRAL MARYLAND

CITY           SKY/WX    TMP DP  RH WIND       PRES   REMARKS
FREDERICK*     SUNNY     63  27  25 MISG      30.07S
HAGERSTOWN APT SUNNY     57  30  35 W17       30.03F
WESTMINSTER*   SUNNY     55  21  26 NW12G24   30.02S

$$

MDZ501>502-192100-
WESTERN MARYLAND

CITY           SKY/WX    TMP DP  RH WIND       PRES   REMARKS
OAKLAND*       SUNNY     45  25  45 W8G20     30.09S
CUMBERLAND*    SUNNY     57  30  35 NW10G18   30.12S

$$

VAZ025>031-192100-
SHENANDOAH VALLEY

CITY           SKY/WX    TMP DP  RH WIND       PRES   REMARKS
WINCHESTER*    SUNNY     59  23  25 NW14      30.06S
FRONT ROYAL*   FAIR      59  32  36 NW5       30.05S
LURAY*         FAIR      63  32  31 NW13      30.06S
NEW MARKET*    FAIR      59  29  32 NE3       30.06S
STAUNTON*      SUNNY     62  26  25 NW10      30.08R
WAYNESBORO*    FAIR      60  28  29 W6        30.06R

$$

WVZ021-048>050-054>055-192100-
EASTERN WEST VIRGINIA PANHANDLE

CITY           SKY/WX    TMP DP  RH WIND       PRES   REMARKS
MARTINSBURG    SUNNY     58  30  34 W17G23    30.06S
PETERSBURG*    SUNNY    N/A N/A N/A NW12      30.10S

$$

VAZ036>039-050-192100-
CENTRAL FOOTHILLS

CITY           SKY/WX    TMP DP  RH WIND       PRES   REMARKS
CHARLOTTESVILL SUNNY     63  32  31 VRB3      30.05S
CULPEPER*      SUNNY     63  28  27 N8        30.06R
ORANGE*        SUNNY     63  30  29 W9        30.06S
GORDONSVILLE*  FAIR      61  31  32 N3        30.04S
WARRENTON*     FAIR      62  39  42 NW14      30.05R

$$

VAZ055>057-192100-
NORTH AND CENTRAL PIEDMONT

CITY           SKY/WX    TMP DP  RH WIND       PRES   REMARKS
FREDERICKSBRG* SUNNY     63  33  33 NW9G16    30.04S
STAFFORD*      SUNNY     60  29  31 NW15      30.09R

$$

NCZ024-NYZ072-PAZ021-071-VAZ022-071-192100-
OTHER REGIONAL OBSERVATIONS

CITY           SKY/WX    TMP DP  RH WIND       PRES   REMARKS
NEW YORK CITY  SUNNY     51  25  36 VRB6G23   29.96R
PHILADELPHIA   MOSUNNY   55  27  34 N21G28    29.99R
PITTSBURGH     PTSUNNY   53  32  44 NW12      30.11F
ROANOKE        MOSUNNY   62  34  35 NW12      30.09F
RICHMOND       MOSUNNY   64  28  25 NW15      30.04S
RALEIGH        MOSUNNY   65  38  36 VRB6      30.08S

$$

ANZ530>537-192100-
MARINE OBSERVATIONS

STATION/POSITION TIME  TEMP    WIND        PRES
                       AIR SEA DIR/SP/G
                 (UTC) (F)     (DEG/KT/KT) (MB)
THOMAS PT LIGHT  2000   56 64  310/ 15/ 18 1017.5R
BALT KEY BRIDGE  2000   56     280/ 18/ 21 1016.0S
COVE POINT       2000   56     330/ 11/ 15 1016.4S
LEWISETTA        2000   57 64  330/ 16/ 22 1016.6S
SOLOMONS ISLAND  2000      67                N/A
PINEY POINT      2000          340/ 21/ 24   N/A

$$




USA.gov is the U.S. government's official web portal to all federal, state and local government web resources and services.